Orofino, ID (83544)

10:23 AM PST on February 27, 2017 (GMT -0800)
MD3277 | | Change Station
Active Advisory: Winter Weather Advisory

Elev 1046 ft 46.48 °N, 116.27 °W | Updated 18 minutes ago

Overcast
Overcast
34.0 °F
Feels Like 34 °F
N
0.0
Wind Variable Wind from East

Today
High -- | Low -- °F
--% Chance of Precip.
Yesterday
High -- | Low -- °F
Precip. -- in
Pressure 29.73 in
Visibility 1.8 miles
Clouds Mostly Cloudy 600 ft
Overcast 3200 ft
Windchill 34 °F
Dew Point 33 °F
Humidity 95%
Rainfall 0.09 in
Snow Depth Not available.
6:27 AM 5:28 PM
New Moon, 2% visible
SPECI KLWS 271817Z 00000KT 1 3/4SM -SN BR BKN006 OVC032 01/M01 A2973 RMK AO2 P0000 T00061006
Pressure 29.73 in
Visibility 1.8 miles
Clouds Mostly Cloudy 600 ft
Overcast 3200 ft
Windchill 34 °F
Dew Point 33 °F
Humidity 95%
Rainfall 0.09 in
Snow Depth Not available.
6:27 AM 5:28 PM
New Moon, 2% visible
SPECI KLWS 271817Z 00000KT 1 3/4SM -SN BR BKN006 OVC032 01/M01 A2973 RMK AO2 P0000 T00061006

Get Your Daily Forecast Email!

Thanks for signing up!

Be on the lookout for a verification email in your inbox.

You'll start receiving the daily forecast at 8 AM.

×

10-Day Weather Forecast

Almanac

Astronomy

Feb. 27, 2017 Rise Set
Actual Time
Civil Twilight
Nautical Twilight
Astronomical Twilight
Moon
Length of Visible Light
Length of Day
Tomorrow will be .
, % of the Moon is Illuminated

Today's Extremes

State Highs State Lows

Community

WunderPhotos

Upload Photos

1,962,540 photos uploaded!

WunderBlog® & News

Nearby

Air Quality

  Air Quality AQ Index Pollutant
Not available.

Snow Depth

Station Depth Elevation

Earthquake Activity

City Distance Mag. Time & Date
Minimum magnitude displayed is 2.5.

Coastal Water Temperatures

Place Temperature

Stations

Nearby Weather Stations

Station Location Temp. Windchill Dew Point Humidity Wind Precip. Elev Updated Type
                   

Watches & Warnings

Winter Weather Advisory
Issued: 9:36 PM PST Feb. 26, 2017 – National Weather Service

... Winter Weather Advisory remains in effect until 11 am PST
Monday...

* impacts/timing: persistent light to moderate snow will impact
west central Idaho through Monday morning. Accumulating snow
will produce potentially challenging driving conditions at
times, especially over whitebird and Greer grades as well
across the higher elevation roads throughout the area.

* Snow accumulations: an additional 2 to 4 inches on the Camas
Prairie, south towards Riggins along US-95 and throughout the
Hells Canyon area. An additional 3 to 6 inches for White Bird
grade and Greer grade

* locations impacted include: Camas Prairie, Grangeville and
vicinity, Greer grade, Highway 95 Slate Creek to Riggins, and
White Bird grade